Location: Dumpton Point
(51.3500°N, 1.4433°E)
Time: 03:54:40
(UTC+00:00)

Cosmos 1833 Rocket - Pass Details

Date: 09 April 2020
Orbit: 834 x 838 km, 71.0° (Epoch: 04 June)

Event Time Altitude Azimuth Distance (km) Brightness Sun altitude
Exits shadow 20:38:55 24° 97° (E) 1,693 3.8 -17.2°
Drops below altitude 10° 20:42:57 10° 51° (NE) 2,460 5.0 -17.7°
Sets 20:45:50 0° 38° (NE) 3,398 5.9 -18.0°
